| time (UTC) | temp F | wind direction | speed MPH | gust MPH | rain 1hr in | rain 24hr in | rain mn in | humidity % | barometer mb |
| 20260903111351 | 83 | 177 | 0.0 | 3.0 | 0.00 | 0.00 | 0.00 | 93 | 1014.6 |
| 20260903110848 | 83 | 171 | 1.0 | 2.0 | 0.00 | 0.00 | 0.00 | 93 | 1014.7 |
| 20260903110343 | 83 | 202 | 0.0 | 3.0 | 0.00 | 0.00 | 0.00 | 93 | 1014.7 |
| 20260903105838 | 83 | 324 | 0.0 | 3.0 | 0.00 | 0.00 | 0.00 | 93 | 1014.5 |
| 20260903105333 | 83 | 203 | 0.0 | 2.0 | 0.00 | 0.00 | 0.00 | 93 | 1014.6 |
| 20260903104832 | 83 | 196 | 0.0 | 2.0 | 0.00 | 0.00 | 0.00 | 94 | 1014.6 |
| 20260903104327 | 83 | 206 | 2.0 | 3.0 | 0.00 | 0.00 | 0.00 | 94 | 1014.4 |
| 20260903103824 | 83 | 231 | 0.0 | 2.0 | 0.00 | 0.00 | 0.00 | 94 | 1014.5 |
| 20260903103320 | 83 | 203 | 0.0 | 2.0 | 0.00 | 0.00 | 0.00 | 94 | 1014.6 |
| 20260903102816 | 83 | 196 | 1.0 | 2.0 | 0.00 | 0.00 | 0.00 | 93 | 1014.4 |
| 20260903102316 | 83 | 160 | 0.0 | 3.0 | 0.00 | 0.00 | 0.00 | 93 | 1014.5 |
| 20260903101815 | 83 | 200 | 0.0 | 3.0 | 0.00 | 0.00 | 0.00 | 93 | 1014.5 |
| 20260903101310 | 83 | 181 | 1.0 | 4.0 | 0.00 | 0.00 | 0.00 | 93 | 1014.4 |
| 20260903100806 | 83 | 201 | 2.0 | 4.0 | 0.00 | 0.00 | 0.00 | 93 | 1014.3 |
| 20260903100300 | 83 | 180 | 1.0 | 2.0 | 0.00 | 0.00 | 0.00 | 93 | 1014.4 |
| 20260903095757 | 83 | 173 | 0.0 | 4.0 | 0.00 | 0.00 | 0.00 | 93 | 1014.3 |
| 20260903095252 | 83 | 208 | 2.0 | 3.0 | 0.00 | 0.00 | 0.00 | 93 | 1014.3 |
| 20260903094747 | 83 | 164 | 1.0 | 3.0 | 0.00 | 0.00 | 0.00 | 93 | 1014.2 |
| 20260903094242 | 83 | 210 | 2.0 | 3.0 | 0.00 | 0.00 | 0.00 | 93 | 1014.2 |
| 20260903093737 | 83 | 313 | 0.0 | 4.0 | 0.00 | 0.00 | 0.00 | 93 | 1014.4 |
| 20260903093233 | 83 | 206 | 0.0 | 3.0 | 0.00 | 0.00 | 0.00 | 93 | 1014.4 |
| 20260903092732 | 83 | 130 | 2.0 | 2.0 | 0.00 | 0.00 | 0.00 | 93 | 1014.5 |
| 20260903092227 | 83 | 147 | 2.0 | 3.0 | 0.00 | 0.00 | 0.00 | 93 | 1014.3 |
| 20260903091726 | 12 | 314 | 0.0 | 2.0 | 0.00 | 0.00 | 0.00 | 41 | 1014.3 |
| 20260903091220 | 12 | 168 | 1.0 | 3.0 | 0.00 | 0.00 | 0.00 | 41 | 1014.4 |
| 20260903090716 | 12 | 202 | 1.0 | 5.0 | 0.00 | 0.00 | 0.00 | 41 | 1014.5 |
| 20260903090214 | 12 | 139 | 2.0 | 2.0 | 0.00 | 0.00 | 0.00 | 41 | 1014.5 |
| 20260903085713 | 12 | 141 | 3.0 | 4.0 | 0.00 | 0.00 | 0.00 | 41 | 1014.6 |
| 20260903085209 | 12 | 210 | 0.0 | 4.0 | 0.00 | 0.00 | 0.00 | 41 | 1014.6 |
| 20260903084707 | 12 | 204 | 0.0 | 3.0 | 0.00 | 0.00 | 0.00 | 41 | 1014.3 |
| 20260903084201 | 12 | 173 | 2.0 | 6.0 | 0.00 | 0.00 | 0.00 | 41 | 1014.6 |
| 20260903083658 | 12 | 131 | 2.0 | 2.0 | 0.00 | 0.00 | 0.00 | 41 | 1014.3 |
| 20260903083157 | 12 | 145 | 0.0 | 3.0 | 0.00 | 0.00 | 0.00 | 41 | 1014.4 |
| 20260903082651 | 12 | 138 | 2.0 | 3.0 | 0.00 | 0.00 | 0.00 | 41 | 1014.4 |
| 20260903082148 | 12 | 190 | 0.0 | 2.0 | 0.00 | 0.00 | 0.00 | 41 | 1014.3 |
| 20260903081642 | 83 | 120 | 1.0 | 5.0 | 0.00 | 0.00 | 0.00 | 93 | 1014.2 |
| 20260903081138 | 83 | 175 | 1.0 | 5.0 | 0.00 | 0.00 | 0.00 | 93 | 1014.3 |
| 20260903080634 | 83 | 240 | 2.0 | 4.0 | 0.00 | 0.00 | 0.00 | 92 | 1014.2 |
| 20260903080132 | 83 | 218 | 0.0 | 3.0 | 0.00 | 0.00 | 0.00 | 93 | 1014.1 |
| 20260903075631 | 83 | 239 | 1.0 | 3.0 | 0.00 | 0.00 | 0.00 | 92 | 1014.3 |
| 20260903075126 | 83 | 203 | 2.0 | 5.0 | 0.00 | 0.00 | 0.00 | 92 | 1014.2 |
| 20260903074625 | 84 | 297 | 2.0 | 3.0 | 0.00 | 0.00 | 0.00 | 92 | 1014.2 |
| 20260903074120 | 84 | 247 | 2.0 | 3.0 | 0.00 | 0.00 | 0.00 | 92 | 1014.3 |
| 20260903073615 | 84 | 219 | 2.0 | 5.0 | 0.00 | 0.00 | 0.00 | 92 | 1014.2 |
| 20260903073111 | 84 | 250 | 3.0 | 5.0 | 0.00 | 0.00 | 0.00 | 92 | 1014.1 |
| 20260903072607 | 84 | 214 | 2.0 | 2.0 | 0.00 | 0.00 | 0.00 | 92 | 1014.2 |
| 20260903072103 | 84 | 210 | 1.0 | 2.0 | 0.00 | 0.00 | 0.00 | 92 | 1014.3 |
| 20260903071559 | 84 | 235 | 0.0 | 3.0 | 0.00 | 0.00 | 0.00 | 91 | 1014.4 |
| 20260903071059 | 84 | 60 | 0.0 | 3.0 | 0.00 | 0.00 | 0.00 | 91 | 1014.3 |
| 20260903070559 | 84 | 180 | 2.0 | 4.0 | 0.00 | 0.00 | 0.00 | 91 | 1014.5 |
| 20260903070055 | 84 | 147 | 1.0 | 2.0 | 0.00 | 0.00 | 0.00 | 91 | 1014.4 |
| 20260903065554 | 84 | 195 | 1.0 | 6.0 | 0.00 | 0.00 | 0.00 | 91 | 1014.4 |
| 20260903065049 | 84 | 209 | 0.0 | 5.0 | 0.00 | 0.00 | 0.00 | 92 | 1014.7 |
| 20260903064549 | 84 | 190 | 1.0 | 3.0 | 0.00 | 0.00 | 0.00 | 91 | 1014.8 |
| 20260903064044 | 84 | 101 | 3.0 | 4.0 | 0.00 | 0.00 | 0.00 | 92 | 1014.6 |
| 20260903063539 | 84 | 196 | 0.0 | 6.0 | 0.00 | 0.00 | 0.00 | 92 | 1014.7 |
| 20260903063035 | 84 | 284 | 1.0 | 5.0 | 0.00 | 0.00 | 0.00 | 91 | 1014.9 |
| 20260903062530 | 84 | 157 | 1.0 | 3.0 | 0.00 | 0.00 | 0.00 | 91 | 1014.7 |
| 20260903062025 | 84 | 195 | 2.0 | 5.0 | 0.00 | 0.00 | 0.00 | 91 | 1015.0 |
| 20260903061521 | 84 | 148 | 1.0 | 5.0 | 0.00 | 0.00 | 0.00 | 91 | 1015.1 |
| 20260903061021 | 84 | 284 | 0.0 | 3.0 | 0.00 | 0.00 | 0.00 | 91 | 1015.0 |
| 20260903060520 | 84 | 187 | 0.0 | 3.0 | 0.00 | 0.00 | 0.00 | 91 | 1015.1 |
| 20260903060015 | 84 | 217 | 0.0 | 2.0 | 0.00 | 0.00 | 0.00 | 91 | 1015.1 |
| 20260903055513 | 84 | 269 | 0.0 | 2.0 | 0.00 | 0.00 | 0.00 | 90 | 1015.3 |
| 20260903055012 | 84 | 191 | 0.0 | 4.0 | 0.00 | 0.00 | 0.00 | 90 | 1015.2 |
| 20260903054507 | 84 | 133 | 2.0 | 5.0 | 0.00 | 0.00 | 0.00 | 90 | 1015.2 |
| 20260903054003 | 84 | 275 | 1.0 | 2.0 | 0.00 | 0.00 | 0.00 | 90 | 1015.3 |
| 20260903053503 | 84 | 89 | 0.0 | 4.0 | 0.00 | 0.00 | 0.00 | 89 | 1015.3 |
| 20260903052959 | 84 | 187 | 2.0 | 3.0 | 0.00 | 0.00 | 0.00 | 90 | 1015.2 |
| 20260903052455 | 84 | 232 | 0.0 | 4.0 | 0.00 | 0.00 | 0.00 | 89 | 1015.0 |
| 20260903051950 | 84 | 111 | 5.0 | 5.0 | 0.00 | 0.00 | 0.00 | 89 | 1015.2 |
| 20260903051445 | 84 | 196 | 0.0 | 3.0 | 0.00 | 0.00 | 0.00 | 89 | 1015.1 |
| 20260903050941 | 84 | 232 | 1.0 | 3.0 | 0.00 | 0.00 | 0.00 | 89 | 1015.2 |
| 20260903050439 | 84 | 179 | 2.0 | 2.0 | 0.00 | 0.00 | 0.00 | 89 | 1015.4 |
| 20260903045934 | 84 | 164 | 1.0 | 3.0 | 0.00 | 0.00 | 0.00 | 89 | 1015.2 |
| 20260903045430 | 84 | 175 | 1.0 | 5.0 | 0.00 | 0.00 | 0.00 | 88 | 1015.4 |
| 20260903044926 | 84 | 142 | 3.0 | 5.0 | 0.00 | 0.00 | 0.00 | 88 | 1015.3 |
| 20260903044427 | 84 | 197 | 0.0 | 3.0 | 0.00 | 0.00 | 0.00 | 88 | 1015.8 |
| 20260903043923 | 84 | 171 | 1.0 | 3.0 | 0.00 | 0.00 | 0.00 | 88 | 1015.5 |
| 20260903043419 | 84 | 195 | 0.0 | 4.0 | 0.00 | 0.00 | 0.00 | 88 | 1015.8 |
| 20260903042917 | 85 | 156 | 2.0 | 4.0 | 0.00 | 0.00 | 0.00 | 88 | 1015.6 |
| 20260903042413 | 85 | 201 | 1.0 | 5.0 | 0.00 | 0.00 | 0.00 | 88 | 1015.7 |
| 20260903041908 | 85 | 98 | 3.0 | 5.0 | 0.00 | 0.00 | 0.00 | 88 | 1015.4 |
| 20260903041404 | 85 | 184 | 1.0 | 8.0 | 0.00 | 0.00 | 0.00 | 88 | 1015.5 |
| 20260903040900 | 85 | 122 | 2.0 | 6.0 | 0.00 | 0.00 | 0.00 | 88 | 1015.7 |
| 20260903040359 | 85 | 147 | 2.0 | 4.0 | 0.00 | 0.00 | 0.00 | 88 | 1015.5 |
| 20260903035855 | 85 | 271 | 1.0 | 3.0 | 0.00 | 0.00 | 0.00 | 88 | 1015.7 |
| 20260903035350 | 85 | 135 | 0.0 | 3.0 | 0.00 | 0.00 | 0.00 | 89 | 1015.6 |
| 20260903034845 | 85 | 179 | 1.0 | 4.0 | 0.00 | 0.00 | 0.00 | 88 | 1015.5 |
| 20260903034341 | 85 | 164 | 1.0 | 5.0 | 0.00 | 0.00 | 0.00 | 88 | 1015.4 |
| 20260903033836 | 85 | 199 | 3.0 | 4.0 | 0.00 | 0.00 | 0.00 | 88 | 1015.3 |
| 20260903033331 | 85 | 154 | 6.0 | 10.0 | 0.00 | 0.00 | 0.00 | 88 | 1015.0 |
| 20260903032830 | 85 | 134 | 1.0 | 5.0 | 0.00 | 0.00 | 0.00 | 88 | 1015.3 |
| 20260903032326 | 85 | 203 | 0.0 | 4.0 | 0.00 | 0.00 | 0.00 | 88 | 1015.4 |
| 20260903031821 | 85 | 18 | 0.0 | 2.0 | 0.00 | 0.00 | 0.00 | 88 | 1015.3 |
| 20260903031321 | 85 | 170 | 2.0 | 5.0 | 0.00 | 0.00 | 0.00 | 88 | 1015.3 |
| 20260903030817 | 85 | 102 | 2.0 | 6.0 | 0.00 | 0.00 | 0.00 | 88 | 1015.3 |
| 20260903030313 | 85 | 206 | 1.0 | 5.0 | 0.00 | 0.00 | 0.00 | 88 | 1015.1 |
| 20260903025808 | 85 | 217 | 0.0 | 8.0 | 0.00 | 0.00 | 0.00 | 88 | 1015.1 |
| 20260903025306 | 85 | 162 | 1.0 | 6.0 | 0.00 | 0.00 | 0.00 | 89 | 1015.0 |
| 20260903024758 | 85 | 143 | 1.0 | 3.0 | 0.00 | 0.00 | 0.00 | 89 | 1014.9 |
| 20260903024257 | 85 | 208 | 2.0 | 5.0 | 0.00 | 0.00 | 0.00 | 89 | 1014.7 |
| 20260903023753 | 85 | 210 | 2.0 | 7.0 | 0.00 | 0.00 | 0.00 | 89 | 1014.8 |
| 20260903023249 | 85 | 217 | 0.0 | 5.0 | 0.00 | 0.00 | 0.00 | 89 | 1014.8 |
| 20260903022749 | 85 | 145 | 4.0 | 6.0 | 0.00 | 0.00 | 0.00 | 89 | 1014.8 |
| 20260903022248 | 85 | 127 | 1.0 | 6.0 | 0.00 | 0.00 | 0.00 | 89 | 1014.4 |
| 20260903021747 | 85 | 160 | 3.0 | 4.0 | 0.00 | 0.00 | 0.00 | 89 | 1014.3 |
| 20260903021243 | 85 | 146 | 2.0 | 3.0 | 0.00 | 0.00 | 0.00 | 89 | 1014.4 |
| 20260903020743 | 85 | 184 | 0.0 | 5.0 | 0.00 | 0.00 | 0.00 | 89 | 1014.3 |
| 20260903020237 | 85 | 236 | 1.0 | 4.0 | 0.00 | 0.00 | 0.00 | 90 | 1014.3 |
| 20260903015732 | 85 | 127 | 6.0 | 11.0 | 0.00 | 0.00 | 0.00 | 89 | 1014.4 |
| 20260903015228 | 85 | 138 | 2.0 | 5.0 | 0.00 | 0.00 | 0.00 | 89 | 1014.3 |
| 20260903014723 | 85 | 134 | 1.0 | 5.0 | 0.00 | 0.00 | 0.00 | 89 | 1014.2 |
| 20260903014222 | 85 | 154 | 1.0 | 6.0 | 0.00 | 0.00 | 0.00 | 89 | 1014.3 |
| 20260903013718 | 85 | 201 | 1.0 | 9.0 | 0.00 | 0.00 | 0.00 | 89 | 1014.2 |
| 20260903013217 | 86 | 94 | 2.0 | 3.0 | 0.00 | 0.00 | 0.00 | 89 | 1014.3 |
| 20260903012716 | 86 | 140 | 0.0 | 6.0 | 0.00 | 0.00 | 0.00 | 88 | 1014.3 |
| 20260903012215 | 86 | 120 | 3.0 | 6.0 | 0.00 | 0.00 | 0.00 | 88 | 1014.2 |
| 20260903011710 | 86 | 166 | 0.0 | 6.0 | 0.00 | 0.00 | 0.00 | 88 | 1014.3 |
| 20260903011210 | 86 | 156 | 3.0 | 7.0 | 0.00 | 0.00 | 0.00 | 87 | 1013.9 |
| 20260903010706 | 86 | 174 | 4.0 | 9.0 | 0.00 | 0.00 | 0.00 | 87 | 1013.8 |
| 20260903010205 | 86 | 8 | 0.0 | 4.0 | 0.00 | 0.00 | 0.00 | 86 | 1013.7 |
| 20260903005704 | 86 | 150 | 6.0 | 11.0 | 0.00 | 0.00 | 0.00 | 86 | 1013.5 |
| 20260903005200 | 86 | 135 | 4.0 | 5.0 | 0.00 | 0.00 | 0.00 | 85 | 1013.9 |
| 20260903004655 | 86 | 202 | 1.0 | 9.0 | 0.00 | 0.00 | 0.00 | 85 | 1014.0 |
| 20260903004149 | 87 | 141 | 5.0 | 7.0 | 0.00 | 0.00 | 0.00 | 84 | 1014.0 |
| 20260903003645 | 87 | 257 | 3.0 | 7.0 | 0.00 | 0.00 | 0.00 | 84 | 1013.9 |
| 20260903003140 | 87 | 180 | 0.0 | 8.0 | 0.00 | 0.00 | 0.00 | 83 | 1013.9 |
| 20260903002636 | 87 | 189 | 1.0 | 4.0 | 0.00 | 0.00 | 0.00 | 82 | 1013.8 |
| 20260903002130 | 87 | 316 | 0.0 | 5.0 | 0.00 | 0.00 | 0.00 | 81 | 1013.4 |
| 20260903001624 | 87 | 118 | 0.0 | 5.0 | 0.00 | 0.00 | 0.00 | 81 | 1013.0 |
| 20260903001119 | 87 | 196 | 2.0 | 9.0 | 0.00 | 0.00 | 0.00 | 80 | 1013.1 |
| 20260903000615 | 88 | 220 | 2.0 | 10.0 | 0.00 | 0.00 | 0.00 | 79 | 1012.9 |
| 20260903000114 | 88 | 219 | 2.0 | 7.0 | 0.00 | 0.00 | 0.00 | 78 | 1013.2 |
| 20260902235613 | 88 | 221 | 2.0 | 12.0 | 0.00 | 0.00 | 0.00 | 77 | 1013.2 |
| 20260902235108 | 89 | 139 | 6.0 | 7.0 | 0.00 | 0.00 | 0.00 | 77 | 1013.1 |
| 20260902234602 | 89 | 222 | 2.0 | 7.0 | 0.00 | 0.00 | 0.00 | 76 | 1013.3 |
| 20260902234100 | 89 | 223 | 3.0 | 4.0 | 0.00 | 0.00 | 0.00 | 75 | 1013.5 |
| 20260902233556 | 89 | 147 | 3.0 | 11.0 | 0.00 | 0.00 | 0.00 | 74 | 1013.2 |
| 20260902233050 | 89 | 82 | 1.0 | 12.0 | 0.00 | 0.00 | 0.00 | 74 | 1013.4 |
| 20260902232549 | 89 | 179 | 2.0 | 12.0 | 0.00 | 0.00 | 0.00 | 74 | 1013.4 |
| 20260902232044 | 90 | 137 | 5.0 | 15.0 | 0.00 | 0.00 | 0.00 | 73 | 1013.3 |
| 20260902231539 | 90 | 180 | 2.0 | 11.0 | 0.00 | 0.00 | 0.00 | 74 | 1013.3 |
| 20260902231039 | 90 | 185 | 2.0 | 7.0 | 0.00 | 0.00 | 0.00 | 74 | 1013.2 |
| 20260902230539 | 91 | 216 | 4.0 | 8.0 | 0.00 | 0.00 | 0.00 | 73 | 1013.0 |
| 20260902230038 | 91 | 211 | 1.0 | 7.0 | 0.00 | 0.00 | 0.00 | 72 | 1013.1 |
| 20260902225533 | 91 | 170 | 4.0 | 9.0 | 0.00 | 0.00 | 0.00 | 72 | 1012.9 |
| 20260902225032 | 92 | 243 | 3.0 | 5.0 | 0.00 | 0.00 | 0.00 | 72 | 1013.0 |
| 20260902224531 | 93 | 207 | 4.0 | 10.0 | 0.00 | 0.00 | 0.00 | 70 | 1013.1 |
| 20260902224027 | 93 | 259 | 1.0 | 7.0 | 0.00 | 0.00 | 0.00 | 67 | 1013.4 |
| 20260902223524 | 93 | 284 | 2.0 | 6.0 | 0.00 | 0.00 | 0.00 | 67 | 1013.1 |
| 20260902223022 | 93 | 202 | 2.0 | 9.0 | 0.00 | 0.00 | 0.00 | 67 | 1013.0 |
| 20260902222521 | 94 | 143 | 2.0 | 5.0 | 0.00 | 0.00 | 0.00 | 65 | 1013.2 |
| 20260902222020 | 94 | 257 | 2.0 | 11.0 | 0.00 | 0.00 | 0.00 | 66 | 1013.2 |
| 20260902221515 | 95 | 235 | 3.0 | 4.0 | 0.00 | 0.00 | 0.00 | 65 | 1013.2 |
| 20260902221010 | 96 | 169 | 4.0 | 7.0 | 0.00 | 0.00 | 0.00 | 64 | 1013.1 |
| 20260902220505 | 96 | 50 | 2.0 | 9.0 | 0.00 | 0.00 | 0.00 | 66 | 1012.9 |
| 20260902215959 | 95 | 200 | 2.0 | 11.0 | 0.00 | 0.00 | 0.00 | 67 | 1013.0 |
| 20260902215456 | 95 | 173 | 2.0 | 7.0 | 0.00 | 0.00 | 0.00 | 67 | 1013.1 |
| 20260902214952 | 95 | 155 | 4.0 | 6.0 | 0.00 | 0.00 | 0.00 | 68 | 1013.2 |
| 20260902214450 | 94 | 198 | 2.0 | 11.0 | 0.00 | 0.00 | 0.00 | 69 | 1013.0 |
| 20260902213950 | 92 | 178 | 3.0 | 15.0 | 0.00 | 0.00 | 0.00 | 71 | 1013.1 |
| 20260902213447 | 92 | 198 | 2.0 | 7.0 | 0.00 | 0.00 | 0.00 | 71 | 1013.3 |
| 20260902212944 | 92 | 279 | 4.0 | 9.0 | 0.00 | 0.00 | 0.00 | 71 | 1013.4 |
| 20260902212441 | 92 | 112 | 6.0 | 10.0 | 0.00 | 0.00 | 0.00 | 72 | 1013.0 |
| 20260902211932 | 92 | 168 | 3.0 | 13.0 | 0.00 | 0.00 | 0.00 | 71 | 1013.0 |
| 20260902211427 | 93 | 163 | 2.0 | 10.0 | 0.00 | 0.00 | 0.00 | 70 | 1013.5 |
| 20260902210922 | 93 | 147 | 3.0 | 8.0 | 0.00 | 0.00 | 0.00 | 70 | 1013.3 |
| 20260902210422 | 94 | 258 | 1.0 | 7.0 | 0.00 | 0.00 | 0.00 | 69 | 1013.5 |
| 20260902205920 | 94 | 217 | 5.0 | 6.0 | 0.00 | 0.00 | 0.00 | 68 | 1013.4 |
| 20260902205416 | 96 | 96 | 2.0 | 4.0 | 0.00 | 0.00 | 0.00 | 61 | 1013.3 |
| 20260902204911 | 96 | 61 | 1.0 | 4.0 | 0.00 | 0.00 | 0.00 | 61 | 1013.4 |
| 20260902204410 | 96 | 237 | 3.0 | 8.0 | 0.00 | 0.00 | 0.00 | 61 | 1013.5 |
| 20260902203906 | 96 | 229 | 3.0 | 6.0 | 0.00 | 0.00 | 0.00 | 61 | 1013.4 |
| 20260902203402 | 96 | 234 | 1.0 | 6.0 | 0.00 | 0.00 | 0.00 | 62 | 1013.8 |
| 20260902202856 | 98 | 253 | 2.0 | 4.0 | 0.00 | 0.00 | 0.00 | 59 | 1013.6 |
| 20260902202352 | 99 | 276 | 2.0 | 4.0 | 0.00 | 0.00 | 0.00 | 59 | 1013.6 |
| 20260902201849 | 98 | 253 | 2.0 | 3.0 | 0.00 | 0.00 | 0.00 | 58 | 1013.9 |
| 20260902201348 | 98 | 265 | 3.0 | 5.0 | 0.00 | 0.00 | 0.00 | 58 | 1013.8 |
| 20260902200843 | 97 | 247 | 3.0 | 6.0 | 0.00 | 0.00 | 0.00 | 60 | 1013.9 |
| 20260902200338 | 97 | 266 | 3.0 | 5.0 | 0.00 | 0.00 | 0.00 | 59 | 1014.0 |
| 20260902195834 | 97 | 206 | 2.0 | 7.0 | 0.00 | 0.00 | 0.00 | 61 | 1014.2 |
| 20260902195333 | 96 | 230 | 3.0 | 7.0 | 0.00 | 0.00 | 0.00 | 61 | 1014.1 |
| 20260902194827 | 96 | 127 | 0.0 | 6.0 | 0.00 | 0.00 | 0.00 | 62 | 1014.2 |
| 20260902194322 | 96 | 304 | 0.0 | 6.0 | 0.00 | 0.00 | 0.00 | 62 | 1014.3 |
| 20260902193818 | 97 | 309 | 1.0 | 4.0 | 0.00 | 0.00 | 0.00 | 62 | 1014.3 |
| 20260902193314 | 97 | 242 | 1.0 | 7.0 | 0.00 | 0.00 | 0.00 | 63 | 1014.5 |
| 20260902192813 | 96 | 242 | 1.0 | 3.0 | 0.00 | 0.00 | 0.00 | 64 | 1014.4 |
| 20260902192311 | 95 | 290 | 1.0 | 7.0 | 0.00 | 0.00 | 0.00 | 65 | 1014.6 |
| 20260902191811 | 94 | 295 | 2.0 | 5.0 | 0.00 | 0.00 | 0.00 | 65 | 1014.5 |
| 20260902191306 | 95 | 287 | 1.0 | 8.0 | 0.00 | 0.00 | 0.00 | 65 | 1014.6 |
| 20260902190801 | 95 | 248 | 3.0 | 6.0 | 0.00 | 0.00 | 0.00 | 63 | 1014.7 |
| 20260902190300 | 95 | 220 | 2.0 | 5.0 | 0.00 | 0.00 | 0.00 | 64 | 1014.7 |
| 20260902185756 | 95 | 243 | 2.0 | 5.0 | 0.00 | 0.00 | 0.00 | 64 | 1014.7 |
| 20260902185251 | 95 | 313 | 3.0 | 4.0 | 0.00 | 0.00 | 0.00 | 64 | 1014.7 |
| 20260902184748 | 95 | 275 | 3.0 | 8.0 | 0.00 | 0.00 | 0.00 | 64 | 1014.8 |
| 20260902184243 | 96 | 316 | 3.0 | 4.0 | 0.00 | 0.00 | 0.00 | 63 | 1014.9 |
| 20260902183738 | 95 | 289 | 3.0 | 7.0 | 0.00 | 0.00 | 0.00 | 64 | 1015.0 |
| 20260902183234 | 95 | 304 | 10.0 | 11.0 | 0.00 | 0.00 | 0.00 | 64 | 1014.9 |
| 20260902182731 | 96 | 319 | 4.0 | 6.0 | 0.00 | 0.00 | 0.00 | 65 | 1015.1 |
| 20260902182226 | 95 | 253 | 0.0 | 4.0 | 0.00 | 0.00 | 0.00 | 66 | 1015.2 |
| 20260902181723 | 95 | 304 | 2.0 | 6.0 | 0.00 | 0.00 | 0.00 | 67 | 1015.3 |
| 20260902181223 | 95 | 221 | 5.0 | 9.0 | 0.00 | 0.00 | 0.00 | 67 | 1015.4 |
| 20260902180717 | 95 | 232 | 3.0 | 5.0 | 0.00 | 0.00 | 0.00 | 68 | 1015.4 |
| 20260902180212 | 94 | 220 | 2.0 | 11.0 | 0.00 | 0.00 | 0.00 | 71 | 1015.5 |
| 20260902175707 | 93 | 52 | 0.0 | 9.0 | 0.00 | 0.00 | 0.00 | 72 | 1015.7 |
| 20260902175203 | 93 | 74 | 3.0 | 12.0 | 0.00 | 0.00 | 0.00 | 72 | 1015.5 |
| 20260902174659 | 93 | 196 | 4.0 | 6.0 | 0.00 | 0.00 | 0.00 | 72 | 1015.8 |
| 20260902174155 | 92 | 328 | 4.0 | 7.0 | 0.00 | 0.00 | 0.00 | 74 | 1016.0 |
| 20260902173650 | 91 | 299 | 4.0 | 8.0 | 0.00 | 0.00 | 0.00 | 76 | 1015.8 |
| 20260902173145 | 91 | 288 | 1.0 | 6.0 | 0.00 | 0.00 | 0.00 | 77 | 1016.0 |
| 20260902172639 | 92 | 227 | 2.0 | 5.0 | 0.00 | 0.00 | 0.00 | 75 | 1015.9 |
| 20260902172138 | 91 | 128 | 2.0 | 4.0 | 0.00 | 0.00 | 0.00 | 77 | 1015.9 |
| 20260902171633 | 91 | 265 | 1.0 | 7.0 | 0.00 | 0.00 | 0.00 | 77 | 1016.3 |
| 20260902171129 | 92 | 273 | 1.0 | 6.0 | 0.00 | 0.00 | 0.00 | 75 | 1016.1 |
| 20260902170625 | 92 | 224 | 4.0 | 4.0 | 0.00 | 0.00 | 0.00 | 75 | 1016.2 |
| 20260902170120 | 92 | 297 | 1.0 | 4.0 | 0.00 | 0.00 | 0.00 | 78 | 1016.3 |
| 20260902165615 | 91 | 204 | 0.0 | 7.0 | 0.00 | 0.00 | 0.00 | 76 | 1016.1 |
| 20260902165109 | 91 | 219 | 2.0 | 5.0 | 0.00 | 0.00 | 0.00 | 78 | 1016.6 |
| 20260902164604 | 90 | 257 | 0.0 | 8.0 | 0.00 | 0.00 | 0.00 | 80 | 1016.6 |
| 20260902164103 | 90 | 303 | 0.0 | 5.0 | 0.00 | 0.00 | 0.00 | 80 | 1016.6 |
| 20260902163559 | 90 | 84 | 1.0 | 7.0 | 0.00 | 0.00 | 0.00 | 79 | 1016.4 |
| 20260902163057 | 90 | 341 | 0.0 | 8.0 | 0.00 | 0.00 | 0.00 | 82 | 1016.6 |
| 20260902162551 | 90 | 300 | 0.0 | 5.0 | 0.00 | 0.00 | 0.00 | 81 | 1016.6 |
| 20260902162046 | 90 | 320 | 4.0 | 10.0 | 0.00 | 0.00 | 0.00 | 79 | 1016.5 |
| 20260902161546 | 90 | 85 | 1.0 | 4.0 | 0.00 | 0.00 | 0.00 | 81 | 1016.8 |
| 20260902161043 | 91 | 326 | 0.0 | 3.0 | 0.00 | 0.00 | 0.00 | 82 | 1016.8 |
| 20260902160538 | 91 | 292 | 2.0 | 6.0 | 0.00 | 0.00 | 0.00 | 82 | 1016.6 |
| 20260902160033 | 90 | 284 | 0.0 | 6.0 | 0.00 | 0.00 | 0.00 | 83 | 1016.7 |
| 20260902155526 | 89 | 283 | 0.0 | 6.0 | 0.00 | 0.00 | 0.00 | 84 | 1016.7 |
| 20260902155025 | 88 | 269 | 0.0 | 7.0 | 0.00 | 0.00 | 0.00 | 85 | 1016.6 |
| 20260902154521 | 89 | 341 | 0.0 | 6.0 | 0.00 | 0.00 | 0.00 | 84 | 1016.7 |
| 20260902154015 | 88 | 306 | 3.0 | 8.0 | 0.00 | 0.00 | 0.00 | 86 | 1016.6 |
| 20260902153514 | 87 | 324 | 2.0 | 11.0 | 0.00 | 0.00 | 0.00 | 87 | 1016.3 |
| 20260902153010 | 87 | 88 | 0.0 | 3.0 | 0.00 | 0.00 | 0.00 | 88 | 1016.6 |
| 20260902152506 | 87 | 267 | 4.0 | 6.0 | 0.00 | 0.00 | 0.00 | 88 | 1016.5 |
| 20260902152001 | 86 | 4 | 0.0 | 10.0 | 0.00 | 0.00 | 0.00 | 89 | 1016.3 |
| 20260902151457 | 86 | 231 | 0.0 | 6.0 | 0.00 | 0.00 | 0.00 | 89 | 1016.5 |
| 20260902150956 | 86 | 323 | 0.0 | 7.0 | 0.00 | 0.00 | 0.00 | 89 | 1016.3 |
| 20260902150452 | 85 | 297 | 0.0 | 4.0 | 0.00 | 0.00 | 0.00 | 90 | 1016.1 |
| 20260902145951 | 85 | 265 | 0.0 | 3.0 | 0.00 | 0.00 | 0.00 | 91 | 1016.5 |
| 20260902145442 | 85 | 321 | 0.0 | 5.0 | 0.00 | 0.00 | 0.00 | 91 | 1016.4 |
| 20260902144941 | 84 | 323 | 0.0 | 2.0 | 0.00 | 0.00 | 0.00 | 91 | 1016.3 |
| 20260902144438 | 84 | 107 | 2.0 | 2.0 | 0.00 | 0.00 | 0.00 | 92 | 1016.4 |
| 20260902143932 | 84 | 98 | 1.0 | 3.0 | 0.00 | 0.00 | 0.00 | 91 | 1016.4 |
| 20260902143427 | 83 | 242 | 0.0 | 3.0 | 0.00 | 0.00 | 0.00 | 92 | 1016.4 |
| 20260902142922 | 83 | 304 | 0.0 | 3.0 | 0.00 | 0.00 | 0.00 | 92 | 1016.1 |
| 20260902142418 | 83 | 249 | 2.0 | 3.0 | 0.00 | 0.00 | 0.00 | 92 | 1016.1 |
| 20260902141914 | 83 | 220 | 0.0 | 3.0 | 0.00 | 0.00 | 0.00 | 92 | 1016.0 |
| 20260902141409 | 82 | 229 | 0.0 | 2.0 | 0.00 | 0.00 | 0.00 | 91 | 1016.1 |
| 20260902140908 | 82 | 261 | 1.0 | 3.0 | 0.00 | 0.00 | 0.00 | 91 | 1016.3 |
| 20260902140404 | 82 | 217 | 0.0 | 2.0 | 0.00 | 0.00 | 0.00 | 92 | 1016.3 |
| 20260902135858 | 82 | 112 | 1.0 | 2.0 | 0.00 | 0.00 | 0.00 | 92 | 1016.3 |
| 20260902135354 | 82 | 235 | 0.0 | 3.0 | 0.00 | 0.00 | 0.00 | 92 | 1016.2 |
| 20260902134852 | 82 | 295 | 1.0 | 2.0 | 0.00 | 0.00 | 0.00 | 91 | 1016.4 |
| 20260902134349 | 81 | 243 | 0.0 | 2.0 | 0.00 | 0.00 | 0.00 | 91 | 1016.1 |
| 20260902133843 | 81 | 13 | 0.0 | 2.0 | 0.00 | 0.00 | 0.00 | 91 | 1016.3 |
| 20260902133343 | 81 | 157 | 0.0 | 2.0 | 0.00 | 0.00 | 0.00 | 91 | 1016.2 |
| 20260902132838 | 81 | 230 | 0.0 | 2.0 | 0.00 | 0.00 | 0.00 | 91 | 1016.4 |
| 20260902132333 | 81 | 239 | 1.0 | 2.0 | 0.00 | 0.00 | 0.00 | 91 | 1016.1 |
| 20260902131829 | 81 | 80 | 0.0 | 2.0 | 0.00 | 0.00 | 0.00 | 91 | 1016.1 |
| 20260902131326 | 80 | 239 | 2.0 | 5.0 | 0.00 | 0.00 | 0.00 | 91 | 1016.1 |
| 20260902130825 | 80 | 254 | 1.0 | 3.0 | 0.00 | 0.00 | 0.00 | 91 | 1015.8 |
| 20260902130321 | 80 | 136 | 1.0 | 4.0 | 0.00 | 0.00 | 0.00 | 91 | 1015.7 |
| 20260902125816 | 80 | 322 | 0.0 | 2.0 | 0.00 | 0.00 | 0.00 | 91 | 1015.6 |
| 20260902125312 | 80 | 202 | 0.0 | 2.0 | 0.00 | 0.00 | 0.00 | 91 | 1015.7 |
| 20260902124808 | 80 | 294 | 0.0 | 2.0 | 0.00 | 0.00 | 0.00 | 90 | 1015.7 |
| 20260902124303 | 80 | 259 | 1.0 | 2.0 | 0.00 | 0.00 | 0.00 | 90 | 1015.6 |
| 20260902123758 | 80 | 190 | 0.0 | 5.0 | 0.00 | 0.00 | 0.00 | 90 | 1015.7 |
| 20260902123254 | 80 | 235 | 0.0 | 2.0 | 0.00 | 0.00 | 0.00 | 91 | 1015.6 |
| 20260902122753 | 80 | 253 | 0.0 | 1.0 | 0.00 | 0.00 | 0.00 | 91 | 1015.4 |
| 20260902122249 | 80 | 89 | 0.0 | 5.0 | 0.00 | 0.00 | 0.00 | 92 | 1015.3 |
| 20260902121749 | 80 | 245 | 0.0 | 3.0 | 0.00 | 0.00 | 0.00 | 94 | 1015.2 |
| 20260902121244 | 80 | 128 | 0.0 | 3.0 | 0.00 | 0.00 | 0.00 | 95 | 1015.0 |
| 20260902120739 | 80 | 228 | 1.0 | 3.0 | 0.00 | 0.00 | 0.00 | 96 | 1015.0 |
| 20260902120235 | 80 | 250 | 1.0 | 4.0 | 0.00 | 0.00 | 0.00 | 97 | 1015.0 |
| 20260902115730 | 80 | 292 | 0.0 | 6.0 | 0.00 | 0.00 | 0.00 | 98 | 1015.1 |
| 20260902115226 | 80 | 237 | 1.0 | 4.0 | 0.00 | 0.00 | 0.00 | 99 | 1015.0 |
| 20260902114722 | 80 | 179 | 3.0 | 4.0 | 0.00 | 0.00 | 0.00 | 99 | 1014.9 |
| 20260902114217 | 80 | 117 | 0.0 | 2.0 | 0.00 | 0.00 | 0.00 | 98 | 1014.9 |
| 20260902113712 | 80 | 309 | 0.0 | 1.0 | 0.00 | 0.00 | 0.00 | 98 | 1014.7 |
| 20260902113207 | 80 | 205 | 0.0 | 1.0 | 0.00 | 0.00 | 0.00 | 98 | 1015.1 |
| 20260902112707 | 80 | 243 | 0.0 | 3.0 | 0.00 | 0.00 | 0.00 | 98 | 1015.0 |
| 20260902112204 | 80 | 205 | 0.0 | 3.0 | 0.00 | 0.00 | 0.00 | 98 | 1014.8 |
| 20260902111659 | 80 | 219 | 0.0 | 2.0 | 0.00 | 0.00 | 0.00 | 98 | 1014.8 |